FW1526 Weather Reports


time (UTC)temp
C
wind
direction
speed
KPH
gust
KPH
rain 1hr
cm
rain 24hr
cm
rain mn
cm
humidity
%
barometer
mb
20260508025721 20 333 11.3 20.9 0.00 0.00 0.00 22 1014.7
20260508025234 20 345 9.7 25.7 0.00 0.00 0.00 22 1014.5
20260508024729 20 31 16.1 24.1 0.00 0.00 0.00 21 1014.4
20260508024222 21 355 12.9 29.0 0.00 0.00 0.00 21 1014.5
20260508022727 21 355 8.0 25.7 0.00 0.00 0.00 21 1014.4
20260508022220 21 347 12.9 29.0 0.00 0.00 0.00 21 1014.3
20260508021734 21 353 20.9 29.0 0.00 0.00 0.00 20 1014.3
20260508020728 21 91 9.7 25.7 0.00 0.00 0.00 21 1014.4
20260508020220 21 352 14.5 29.0 0.00 0.00 0.00 21 1014.4
20260508015734 21 48 14.5 29.0 0.00 0.00 0.00 20 1014.4
20260508015227 22 343 12.9 27.4 0.00 0.00 0.00 20 1014.4
20260508014721 22 358 17.7 27.4 0.00 0.00 0.00 20 1014.4
20260508013228 22 330 20.9 30.6 0.00 0.00 0.00 19 1014.4
20260508011726 22 335 19.3 32.2 0.00 0.00 0.00 18 1014.5
20260508011220 23 4 9.7 30.6 0.00 0.00 0.00 18 1014.5
20260508010734 23 335 9.7 30.6 0.00 0.00 0.00 18 1014.5
20260508010227 23 15 11.3 29.0 0.00 0.00 0.00 17 1014.6
20260508005721 22 10 19.3 38.6 0.00 0.00 0.00 17 1014.6
20260508005215 22 20 14.5 38.6 0.00 0.00 0.00 18 1014.5
20260508004729 22 334 19.3 35.4 0.00 0.00 0.00 17 1014.7
20260508004224 22 80 19.3 37.0 0.00 0.00 0.00 17 1014.5
20260508003721 22 14 19.3 37.0 0.00 0.00 0.00 16 1014.5
20260508002227 23 339 16.1 33.8 0.00 0.00 0.00 17 1014.4
20260508001720 23 341 20.9 33.8 0.00 0.00 0.00 17 1014.4
20260508001233 23 50 9.7 37.0 0.00 0.00 0.00 17 1014.3
20260508000727 23 58 16.1 37.0 0.00 0.00 0.00 17 1014.3
20260508000221 23 12 19.3 37.0 0.00 0.00 0.00 17 1014.3
20260507235718 23 7 20.9 37.0 0.00 0.00 0.00 17 1014.1
20260507235234 23 2 14.5 43.5 0.00 0.00 0.00 18 1014.1
20260507234727 23 322 29.0 43.5 0.00 0.00 0.00 18 1014.0
20260507233715 23 336 19.3 43.5 0.00 0.00 0.00 18 1013.8
20260507233231 23 74 11.3 43.5 0.00 0.00 0.00 18 1014.0
20260507232724 23 55 20.9 38.6 0.00 0.00 0.00 18 1014.0
20260507231714 23 14 22.5 38.6 0.00 0.00 0.00 19 1014.0
20260507231233 24 2 16.1 43.5 0.00 0.00 0.00 18 1014.1
20260507230726 23 76 14.5 43.5 0.00 0.00 0.00 20 1014.1
20260507225717 24 13 19.3 33.8 0.00 0.00 0.00 19 1014.4
20260507225231 24 8 19.3 40.2 0.00 0.00 0.00 19 1014.3
20260507223717 24 313 19.3 40.2 0.00 0.00 0.00 20 1014.6
20260507223232 24 69 14.5 32.2 0.00 0.00 0.00 20 1014.5
20260507222730 24 31 8.0 30.6 0.00 0.00 0.00 20 1014.6
20260507222224 24 351 16.1 30.6 0.00 0.00 0.00 20 1014.7
20260507221717 24 99 8.0 27.4 0.00 0.00 0.00 21 1014.7
20260507221231 24 39 8.0 37.0 0.00 0.00 0.00 21 1014.7
20260507220725 24 341 17.7 37.0 0.00 0.00 0.00 21 1014.7
20260507220219 24 359 11.3 27.4 0.00 0.00 0.00 21 1014.8
20260507215226 25 36 9.7 20.9 0.00 0.00 0.00 22 1014.8
20260507214723 25 100 6.4 16.1 0.00 0.00 0.00 22 1014.9
20260507214216 25 40 8.0 14.5 0.00 0.00 0.00 23 1014.9
20260507213729 24 61 4.8 22.5 0.00 0.00 0.00 22 1014.9
20260507213223 24 88 6.4 22.5 0.00 0.00 0.00 23 1015.0
20260507212232 24 360 8.0 22.5 0.00 0.00 0.00 22 1015.1
20260507211222 24 354 8.0 20.9 0.00 0.00 0.00 20 1015.1
20260507210720 24 1 4.8 19.3 0.00 0.00 0.00 20 1015.2
20260507205226 24 121 9.7 27.4 0.00 0.00 0.00 22 1015.3
20260507204719 24 97 9.7 19.3 0.00 0.00 0.00 22 1015.3
20260507204233 24 353 6.4 19.3 0.00 0.00 0.00 20 1015.4
20260507203725 24 266 4.8 24.1 0.00 0.00 0.00 22 1015.4
20260507203220 23 112 4.8 24.1 0.00 0.00 0.00 22 1015.3
20260507202717 24 231 6.4 22.5 0.00 0.00 0.00 24 1015.5
20260507202232 25 94 8.0 22.5 0.00 0.00 0.00 25 1015.4
20260507201223 24 109 0.0 6.4 0.00 0.00 0.00 27 1015.5
20260507200717 23 102 1.6 11.3 0.00 0.00 0.00 28 1015.6
20260507200232 23 42 3.2 11.3 0.00 0.00 0.00 27 1015.7
20260507195220 23 129 6.4 9.7 0.00 0.00 0.00 31 1015.8
20260507194734 23 45 6.4 9.7 0.00 0.00 0.00 27 1015.8
20260507194233 23 95 0.0 6.4 0.00 0.00 0.00 29 1015.9
20260507193726 22 130 3.2 12.9 0.00 0.00 0.00 27 1016.0
20260507193221 22 114 4.8 12.9 0.00 0.00 0.00 28 1016.0
20260507191729 22 99 0.0 11.3 0.00 0.00 0.00 29 1016.1
20260507191223 21 335 3.2 11.3 0.00 0.00 0.00 29 1016.2
20260507190716 22 334 3.2 8.0 0.00 0.00 0.00 30 1016.1
20260507190231 21 159 1.6 6.4 0.00 0.00 0.00 31 1016.3
20260507185728 21 187 3.2 12.9 0.00 0.00 0.00 32 1016.5
20260507185222 20 336 0.0 19.3 0.00 0.00 0.00 33 1016.5
20260507184716 20 307 9.7 19.3 0.00 0.00 0.00 32 1016.5
20260507184232 20 277 1.6 9.7 0.00 0.00 0.00 32 1016.6
20260507183220 20 174 1.6 9.7 0.00 0.00 0.00 33 1016.7
20260507182733 20 210 4.8 9.7 0.00 0.00 0.00 34 1016.7
20260507181727 20 115 6.4 12.9 0.00 0.00 0.00 35 1016.8
20260507181221 20 178 0.0 6.4 0.00 0.00 0.00 35 1016.8
20260507180735 20 231 0.0 6.4 0.00 0.00 0.00 36 1016.8
20260507180230 20 125 0.0 6.4 0.00 0.00 0.00 36 1016.9
20260507175722 20 147 0.0 6.4 0.00 0.00 0.00 38 1017.0
20260507174230 19 124 0.0 8.0 0.00 0.00 0.00 38 1017.0
20260507173722 18 152 3.2 8.0 0.00 0.00 0.00 38 1017.1
20260507173221 18 73 0.0 3.2 0.00 0.00 0.00 39 1017.2
20260507172734 18 158 0.0 6.4 0.00 0.00 0.00 42 1017.2
20260507172228 18 120 3.2 8.0 0.00 0.00 0.00 43 1017.1
20260507171217 17 112 3.2 8.0 0.00 0.00 0.00 43 1017.2
20260507170731 17 142 1.6 8.0 0.00 0.00 0.00 44 1017.2
20260507170226 17 128 4.8 9.7 0.00 0.00 0.00 45 1017.3
20260507165717 17 168 4.8 9.7 0.00 0.00 0.00 45 1017.2
20260507165216 17 119 1.6 6.4 0.00 0.00 0.00 47 1017.3
20260507164730 17 114 3.2 6.4 0.00 0.00 0.00 46 1017.3
20260507164223 17 156 1.6 6.4 0.00 0.00 0.00 47 1017.3
20260507163717 17 133 0.0 4.8 0.00 0.00 0.00 48 1017.3
20260507163232 16 230 1.6 8.0 0.00 0.00 0.00 49 1017.3
20260507162725 16 273 1.6 8.0 0.00 0.00 0.00 49 1017.3
20260507160731 16 97 1.6 4.8 0.00 0.00 0.00 51 1017.5
20260507160224 16 166 0.0 4.8 0.00 0.00 0.00 52 1017.5
20260507155718 15 200 0.0 3.2 0.00 0.00 0.00 53 1017.5
20260507155233 15 106 0.0 3.2 0.00 0.00 0.00 53 1017.6
20260507154728 15 116 1.6 6.4 0.00 0.00 0.00 54 1017.6
20260507154221 15 119 1.6 6.4 0.00 0.00 0.00 54 1017.7
20260507153736 15 168 0.0 4.8 0.00 0.00 0.00 56 1017.6
20260507152729 14 102 0.0 6.4 0.00 0.00 0.00 59 1017.6
20260507151716 14 159 0.0 4.8 0.00 0.00 0.00 57 1017.6
20260507151229 13 226 0.0 6.4 0.00 0.00 0.00 61 1017.6
20260507150725 13 178 1.6 6.4 0.00 0.00 0.00 61 1017.6
20260507150221 13 136 3.2 6.4 0.00 0.00 0.00 63 1017.6
20260507145734 13 131 0.0 3.2 0.00 0.00 0.00 62 1017.6
20260507145227 12 123 0.0 3.2 0.00 0.00 0.00 65 1017.6
20260507144719 11 199 0.0 1.6 0.00 0.00 0.00 67 1017.6
20260507144232 11 265 0.0 1.6 0.00 0.00 0.00 67 1017.6
20260507143723 11 264 0.0 0.0 0.00 0.00 0.00 68 1017.6
20260507143235 10 264 0.0 0.0 0.00 0.00 0.00 68 1017.6
20260507141725 9 262 0.0 3.2 0.00 0.00 0.00 71 1017.5
20260507141219 8 237 1.6 3.2 0.00 0.00 0.00 72 1017.5
20260507140733 8 272 0.0 0.0 0.00 0.00 0.00 73 1017.5
20260507140226 8 272 0.0 1.6 0.00 0.00 0.00 75 1017.3
20260507135719 7 272 0.0 3.2 0.00 0.00 0.00 76 1017.3
20260507135234 7 284 0.0 4.8 0.00 0.00 0.00 77 1017.2
20260507134727 6 261 1.6 3.2 0.00 0.00 0.00 79 1017.2
20260507134226 6 242 0.0 3.2 0.00 0.00 0.00 81 1017.1
20260507133720 6 216 1.6 3.2 0.00 0.00 0.00 82 1017.1
20260507133234 6 241 1.6 3.2 0.00 0.00 0.00 82 1017.1
20260507132727 6 262 1.6 3.2 0.00 0.00 0.00 82 1017.1
20260507132222 6 268 0.0 1.6 0.00 0.00 0.00 83 1017.0
20260507131735 6 254 0.0 3.2 0.00 0.00 0.00 83 1016.9
20260507131230 6 285 0.0 3.2 0.00 0.00 0.00 83 1016.9
20260507130224 6 197 0.0 1.6 0.00 0.00 0.00 82 1016.8
20260507125718 6 245 1.6 1.6 0.00 0.00 0.00 82 1016.9
20260507125233 6 201 0.0 3.2 0.00 0.00 0.00 81 1016.7
20260507124726 6 228 0.0 6.4 0.00 0.00 0.00 81 1016.7
20260507124221 6 218 3.2 6.4 0.00 0.00 0.00 81 1016.7
20260507123735 6 173 0.0 4.8 0.00 0.00 0.00 82 1016.6
20260507122220 6 254 3.2 8.0 0.00 0.00 0.00 81 1016.8
20260507121718 7 258 3.2 6.4 0.00 0.00 0.00 79 1016.8
20260507121233 7 212 1.6 6.4 0.00 0.00 0.00 78 1016.8
20260507120727 7 213 3.2 4.8 0.00 0.00 0.00 77 1016.8
20260507120220 7 258 1.6 6.4 0.00 0.00 0.00 78 1016.8
20260507115733 7 277 0.0 4.8 0.00 0.00 0.00 78 1016.8
20260507115227 7 320 0.0 4.8 0.00 0.00 0.00 78 1016.9
20260507114719 7 262 0.0 3.2 0.00 0.00 0.00 78 1016.9
20260507114218 7 277 0.0 3.2 0.00 0.00 0.00 79 1016.9
20260507113732 7 299 1.6 3.2 0.00 0.00 0.00 80 1017.0
20260507113225 7 275 3.2 3.2 0.00 0.00 0.00 80 1016.9
20260507112719 7 261 1.6 3.2 0.00 0.00 0.00 79 1016.9
20260507112234 7 264 1.6 4.8 0.00 0.00 0.00 78 1016.9
20260507111727 7 259 3.2 4.8 0.00 0.00 0.00 77 1016.9
20260507111222 7 258 3.2 4.8 0.00 0.00 0.00 79 1017.0
20260507110715 8 268 3.2 4.8 0.00 0.00 0.00 79 1016.9
20260507110234 8 255 0.0 0.0 0.00 0.00 0.00 79 1017.0
20260507105726 8 258 0.0 0.0 0.00 0.00 0.00 79 1017.0
20260507105220 8 198 0.0 0.0 0.00 0.00 0.00 79 1017.1
20260507104733 8 261 0.0 0.0 0.00 0.00 0.00 79 1017.1
20260507104227 8 221 0.0 0.0 0.00 0.00 0.00 79 1017.1
20260507103217 8 256 0.0 3.2 0.00 0.00 0.00 76 1017.0
20260507102732 9 232 0.0 3.2 0.00 0.00 0.00 76 1017.0
20260507101725 9 264 0.0 0.0 0.00 0.00 0.00 76 1017.1
20260507101217 9 215 0.0 0.0 0.00 0.00 0.00 76 1017.1
20260507100733 9 317 0.0 0.0 0.00 0.00 0.00 76 1017.1
20260507095720 10 263 0.0 0.0 0.00 0.00 0.00 77 1017.1
20260507095234 10 256 0.0 0.0 0.00 0.00 0.00 76 1017.2
20260507094730 10 204 0.0 0.0 0.00 0.00 0.00 75 1017.2
20260507094224 10 186 0.0 0.0 0.00 0.00 0.00 74 1017.2
20260507093226 11 256 0.0 0.0 0.00 0.00 0.00 72 1017.2
20260507092717 11 267 0.0 0.0 0.00 0.00 0.00 73 1017.2
20260507092232 11 267 0.0 0.0 0.00 0.00 0.00 72 1017.2
20260507091727 11 280 0.0 0.0 0.00 0.00 0.00 71 1017.2
20260507091221 11 280 0.0 0.0 0.00 0.00 0.00 70 1017.3
20260507090735 12 280 0.0 0.0 0.00 0.00 0.00 69 1017.2
20260507090230 12 280 0.0 0.0 0.00 0.00 0.00 68 1017.2
20260507085724 12 277 0.0 0.0 0.00 0.00 0.00 69 1017.3
20260507085223 12 277 0.0 6.4 0.00 0.00 0.00 67 1017.3
20260507084717 12 239 1.6 9.7 0.00 0.00 0.00 67 1017.3
20260507084230 13 285 6.4 9.7 0.00 0.00 0.00 67 1017.3
20260507083725 13 285 1.6 6.4 0.00 0.00 0.00 66 1017.2
20260507083220 13 251 1.6 6.4 0.00 0.00 0.00 66 1017.2
20260507082734 13 283 0.0 6.4 0.00 0.00 0.00 66 1017.2
20260507082227 13 284 0.0 6.4 0.00 0.00 0.00 66 1017.3
20260507081727 13 274 1.6 6.4 0.00 0.00 0.00 66 1017.3
20260507081221 13 317 0.0 8.0 0.00 0.00 0.00 66 1017.4
20260507080735 13 275 1.6 9.7 0.00 0.00 0.00 66 1017.5
20260507080227 13 274 6.4 9.7 0.00 0.00 0.00 67 1017.5
20260507075722 13 285 0.0 6.4 0.00 0.00 0.00 66 1017.6
20260507075216 13 264 0.0 8.0 0.00 0.00 0.00 66 1017.6
20260507074730 13 254 1.6 8.0 0.00 0.00 0.00 65 1017.6
20260507074224 13 271 1.6 8.0 0.00 0.00 0.00 66 1017.6
20260507073722 13 264 0.0 6.4 0.00 0.00 0.00 63 1017.7
20260507072733 13 198 0.0 0.0 0.00 0.00 0.00 62 1017.7
20260507071723 14 268 0.0 1.6 0.00 0.00 0.00 62 1017.7
20260507071217 14 225 0.0 6.4 0.00 0.00 0.00 61 1017.6
20260507070732 14 198 1.6 6.4 0.00 0.00 0.00 61 1017.6
20260507065223 15 100 0.0 0.0 0.00 0.00 0.00 60 1017.6
20260507064234 15 102 0.0 0.0 0.00 0.00 0.00 58 1017.6
20260507063728 15 173 0.0 0.0 0.00 0.00 0.00 58 1017.7
20260507063222 15 173 0.0 0.0 0.00 0.00 0.00 57 1017.8
20260507062716 15 173 0.0 1.6 0.00 0.00 0.00 57 1017.7
20260507062232 15 186 0.0 1.6 0.00 0.00 0.00 56 1017.7
20260507061724 15 267 0.0 0.0 0.00 0.00 0.00 55 1017.7
20260507061222 16 358 0.0 0.0 0.00 0.00 0.00 55 1017.7
20260507060735 16 274 0.0 0.0 0.00 0.00 0.00 54 1017.8
20260507060227 16 350 0.0 8.0 0.00 0.00 0.00 54 1017.8
20260507055721 16 50 0.0 9.7 0.00 0.00 0.00 53 1017.8
20260507055215 16 95 1.6 11.3 0.00 0.00 0.00 53 1017.8
20260507054728 16 346 0.0 11.3 0.00 0.00 0.00 54 1017.9
20260507054222 16 80 1.6 11.3 0.00 0.00 0.00 55 1018.0
20260507053716 16 76 0.0 3.2 0.00 0.00 0.00 56 1018.0
20260507053215 16 119 0.0 4.8 0.00 0.00 0.00 55 1018.1
20260507052728 16 19 0.0 4.8 0.00 0.00 0.00 55 1018.1
20260507052222 16 176 0.0 6.4 0.00 0.00 0.00 54 1018.0
20260507045719 16 5 0.0 0.0 0.00 0.00 0.00 51 1018.2
20260507044731 17 344 0.0 1.6 0.00 0.00 0.00 49 1018.2
20260507044228 17 50 0.0 0.0 0.00 0.00 0.00 49 1018.1
20260507043219 17 65 0.0 3.2 0.00 0.00 0.00 47 1018.1
20260507042732 17 69 1.6 8.0 0.00 0.00 0.00 46 1018.1
20260507042227 17 107 1.6 8.0 0.00 0.00 0.00 45 1018.1
20260507041720 17 88 1.6 11.3 0.00 0.00 0.00 44 1018.0
20260507041235 17 98 3.2 14.5 0.00 0.00 0.00 44 1017.9
20260507040727 18 130 4.8 16.1 0.00 0.00 0.00 43 1018.0
20260507040225 18 22 4.8 17.7 0.00 0.00 0.00 42 1017.9
20260507035215 18 10 8.0 22.5 0.00 0.00 0.00 41 1017.7
20260507034728 18 342 9.7 19.3 0.00 0.00 0.00 41 1017.6
20260507034221 18 121 8.0 16.1 0.00 0.00 0.00 40 1017.6
20260507033734 18 32 6.4 12.9 0.00 0.00 0.00 41 1017.6
20260507033230 18 97 4.8 14.5 0.00 0.00 0.00 41 1017.6
20260507032721 19 90 4.8 16.1 0.00 0.00 0.00 41 1017.5
20260507032219 19 88 8.0 19.3 0.00 0.00 0.00 41 1017.5
20260507031732 19 123 8.0 19.3 0.00 0.00 0.00 40 1017.3
20260507031226 19 105 4.8 19.3 0.00 0.00 0.00 39 1017.3
20260507030216 20 74 6.4 14.5 0.00 0.00 0.00 37 1017.2